Location: El Dieciséis
(32.4721°N, 116.6080°W)
Time: 08:30:10
(UTC+00:00)

Cosmos 1939 Rocket - Pass Details

Date: 13 June 2024
Orbit: 512 x 558 km, 97.4° (Epoch: 19 July)

Event Time Altitude Azimuth Distance (km) Brightness Sun altitude
Rises 12:02:22 0° 17° (NNE) 2,740 7.3 -7.4°
Reaches altitude 10° 12:04:34 10° 23° (NNE) 1,836 6.5 -7.0°
Maximum altitude 12:08:26 51° 99° (E) 696 3.7 -6.3°
Drops below altitude 10° 12:12:14 10° 176° (S) 1,800 5.2 -5.6°
Sets 12:14:22 0° 182° (S) 2,679 6.0 -5.3°
